Flag for Germany Weather past 2 weeks in Bremerhaven, Bremen, Germany

Now
61 °F

Broken clouds.


Feels Like: 61 °F
Forecast: 53 / 58 °F
Wind: 10 mph from West

Location: Nordholz

Current Time: Sep 23, 2014 at 3:06:18 PM

Latest Report: Sep 23, 2014 at 2:20 PM


Visibility: N/A

Pressure: 30.09 "Hg

Humidity: 59%

Dew point: 46 °F

Location of BremerhavenLocation

Historic Weather in Bremerhaven — Graph

°F

Bremerhaven temperature yesterday

Maximum temperature yesterday: 59 °F (at 1:20 AM)
Minimum temperature yesterday: 52 °F (at 11:20 PM)
Average temperature yesterday: 56 °F

Past Weeks' High & Low Weather Summary

 TemperatureHumidityPressure
High75 °F (Sep 19, 3:20 PM)100% (Sep 12, 1:20 AM)30.27 "Hg (Sep 12, 1:20 AM)
Low43 °F (Sep 23, 5:20 AM)51% (Sep 22, 11:20 AM)29.89 "Hg (Sep 18, 3:20 PM)
Average61 °F81%30.05 "Hg
* Reported Sep 8 1:20 PM — Sep 23 1:20 PM, Bremerhaven, Weather by CustomWeather, © 2014

Note: Actual official high and low records may vary slightly from our data, if they occured in-between our weather recording intervals... More about our weather records

Advertising

Bremerhaven weather history for previous 24 hours

 ConditionsComfort  
Time TempWeatherWind HumidityBarometerVisibility
1:20 PM
Sep 23
59 °FBroken clouds.9 mph68%30.09 "HgN/A
12:20 PM57 °FPartly sunny.6 mph77%30.09 "HgN/A
11:20 AM57 °FPartly sunny.8 mph67%30.09 "HgN/A
10:20 AM55 °FScattered clouds.7 mph72%30.12 "HgN/A
9:20 AM54 °FPassing clouds.6 mph72%30.09 "HgN/A
8:20 AM46 °FScattered clouds.6 mph87%30.09 "HgN/A
7:20 AM45 °FPassing clouds.6 mph87%30.09 "HgN/A
6:20 AM43 °FPassing clouds.6 mph93%30.09 "HgN/A
5:20 AM43 °FPassing clouds.No wind93%30.09 "HgN/A
4:20 AM45 °FPassing clouds.1 mph87%30.09 "HgN/A
3:20 AM45 °FPassing clouds.2 mph81%30.09 "HgN/A
2:20 AM50 °FPassing clouds.6 mph71%30.09 "HgN/A
1:20 AM50 °FPassing clouds.5 mph67%30.09 "HgN/A
12:20 AM52 °FPassing clouds.8 mph58%30.09 "HgN/A
11:20 PM
Sep 22
52 °FPassing clouds.8 mph72%30.09 "HgN/A
10:20 PM54 °FPassing clouds.10 mph67%30.09 "HgN/A
9:20 PM55 °FPassing clouds.9 mph67%30.07 "HgN/A
8:20 PM57 °FDrizzle. Partly sunny.10 mph67%30.07 "HgN/A
7:20 PM57 °FPartly sunny.13 mph63%30.04 "HgN/A
6:20 PM57 °FPartly sunny.17 mph63%30.04 "HgN/A
5:20 PM57 °FPartly sunny.18 mph63%30.01 "HgN/A
4:20 PM59 °FScattered clouds.21 mph55%30.01 "HgN/A
3:20 PM59 °FScattered clouds.22 mph55%30.01 "HgN/A
Weather by CustomWeather, © 2014

See weather overviewHow to use our weather pages